GW6252 Weather Reports


time (UTC)temp
C
wind
direction
speed
KPH
gust
KPH
rain 1hr
cm
rain 24hr
cm
rain mn
cm
humidity
%
barometer
mb
20260510104500 17 95 1.6 3.2 0.00 0.00 0.00 93 1011.0
20260510104000 17 158 3.2 3.2 0.00 0.00 0.00 93 1011.0
20260510103500 17 97 1.6 4.8 0.00 0.00 0.00 93 1011.1
20260510103000 17 159 1.6 4.8 0.00 0.00 0.00 93 1011.0
20260510102500 17 199 4.8 4.8 0.00 0.00 0.00 93 1011.0
20260510102000 17 184 3.2 4.8 0.00 0.00 0.00 93 1010.9
20260510101500 17 206 3.2 4.8 0.00 0.00 0.00 93 1010.9
20260510101000 17 189 3.2 4.8 0.00 0.00 0.00 93 1010.8
20260510100500 17 195 4.8 4.8 0.00 0.00 0.00 93 1010.8
20260510100000 16 222 3.2 3.2 0.00 0.00 0.00 93 1010.8
20260510095500 16 235 1.6 4.8 0.00 0.00 0.00 93 1010.7
20260510095000 17 270 3.2 4.8 0.00 0.00 0.00 93 1010.8
20260510094500 17 291 3.2 6.4 0.00 0.00 0.00 93 1010.6
20260510094000 17 309 3.2 6.4 0.00 0.00 0.00 93 1010.5
20260510093500 17 308 4.8 6.4 0.00 0.00 0.00 93 1010.4
20260510093000 17 309 4.8 6.4 0.00 0.00 0.00 93 1010.2
20260510092500 17 307 4.8 4.8 0.00 0.00 0.00 93 1010.1
20260510092000 17 315 3.2 3.2 0.00 0.00 0.00 93 1009.9
20260510091500 17 303 3.2 3.2 0.00 0.00 0.00 93 1010.0
20260510091000 17 276 1.6 3.2 0.00 0.00 0.00 93 1009.9
20260510090500 17 236 3.2 3.2 0.00 0.00 0.00 92 1009.8
20260510090000 17 309 1.6 3.2 0.00 0.00 0.00 92 1009.7
20260510085500 17 295 3.2 3.2 0.00 0.00 0.00 92 1009.7
20260510085000 17 305 3.2 3.2 0.00 0.00 0.00 92 1009.5
20260510084500 17 342 1.6 3.2 0.00 0.00 0.00 92 1009.4
20260510084000 17 51 1.6 3.2 0.00 0.00 0.00 92 1009.5
20260510083500 17 32 3.2 3.2 0.00 0.00 0.00 92 1009.4
20260510083000 17 33 1.6 3.2 0.00 0.00 0.00 93 1009.3
20260510082500 17 1 0.0 3.2 0.00 0.00 0.00 92 1009.3
20260510082000 17 5 1.6 3.2 0.00 0.00 0.00 92 1009.2
20260510081500 17 130 3.2 3.2 0.00 0.00 0.00 92 1009.2
20260510081000 17 162 1.6 3.2 0.00 0.00 0.00 92 1009.3
20260510080500 17 211 1.6 3.2 0.00 0.00 0.00 92 1009.3
20260510080000 17 269 1.6 4.8 0.00 0.00 0.00 92 1009.3
20260510075500 17 208 1.6 4.8 0.00 0.00 0.00 91 1009.1
20260510075000 17 160 3.2 4.8 0.00 0.00 0.00 91 1009.0
20260510074500 17 151 3.2 3.2 0.00 0.00 0.00 91 1009.0
20260510074000 17 119 1.6 1.6 0.00 0.00 0.00 91 1009.0
20260510073500 17 71 1.6 3.2 0.00 0.00 0.00 91 1009.2
20260510073000 17 74 1.6 3.2 0.00 0.00 0.00 91 1009.2
20260510072500 17 121 1.6 1.6 0.00 0.00 0.00 90 1009.1
20260510072000 17 181 0.0 3.2 0.00 0.00 0.00 90 1009.2
20260510071500 17 180 1.6 3.2 0.00 0.00 0.00 90 1009.3
20260510071000 17 234 1.6 3.2 0.00 0.00 0.00 89 1009.4
20260510070500 18 217 1.6 3.2 0.00 0.00 0.00 89 1009.4
20260510070000 18 265 1.6 3.2 0.00 0.00 0.00 89 1009.5
20260510065500 18 264 1.6 3.2 0.00 0.00 0.00 88 1009.5
20260510065000 18 247 3.2 3.2 0.00 0.00 0.00 86 1009.4
20260510064500 18 270 1.6 3.2 0.00 0.00 0.00 85 1009.4
20260510064000 18 93 3.2 3.2 0.00 0.00 0.00 84 1009.3
20260510063500 19 97 1.6 3.2 0.00 0.00 0.00 84 1009.4
20260510063000 19 96 3.2 3.2 0.00 0.00 0.00 84 1009.4
20260510062500 18 85 1.6 3.2 0.00 0.00 0.00 85 1009.3
20260510062000 18 152 1.6 3.2 0.00 0.00 0.00 85 1009.3
20260510061500 18 166 3.2 3.2 0.00 0.00 0.00 85 1009.4
20260510061000 18 177 1.6 3.2 0.00 0.00 0.00 85 1009.3
20260510060500 18 177 1.6 3.2 0.00 0.00 0.00 85 1009.3
20260510060000 18 200 3.2 4.8 0.00 0.00 0.00 84 1009.2
20260510055500 19 211 3.2 4.8 0.00 0.00 0.00 84 1009.2
20260510055000 19 191 3.2 6.4 0.00 0.00 0.00 84 1009.1
20260510054500 19 184 3.2 6.4 0.00 0.00 0.00 84 1009.1
20260510054000 18 168 3.2 6.4 0.00 0.00 0.00 85 1009.0
20260510053500 18 143 3.2 3.2 0.00 0.00 0.00 85 1009.0
20260510053000 19 156 3.2 3.2 0.00 0.00 0.00 84 1009.0
20260510052500 19 156 3.2 3.2 0.00 0.00 0.00 85 1009.1
20260510052000 19 184 3.2 3.2 0.00 0.00 0.00 84 1009.1
20260510051500 19 209 3.2 4.8 0.00 0.00 0.00 85 1009.1
20260510051000 19 209 3.2 4.8 0.00 0.00 0.00 86 1009.1
20260510050500 19 230 4.8 4.8 0.00 0.00 0.00 86 1009.1
20260510050000 19 198 1.6 4.8 0.00 0.00 0.00 85 1009.0
20260510045500 19 173 3.2 4.8 0.00 0.00 0.00 85 1008.9
20260510045000 19 183 4.8 4.8 0.00 0.00 0.00 85 1009.0
20260510044500 19 207 3.2 4.8 0.00 0.00 0.00 85 1009.0
20260510044000 20 184 3.2 4.8 0.00 0.00 0.00 84 1009.0
20260510043500 20 158 3.2 4.8 0.00 0.00 0.00 83 1009.0
20260510043000 20 175 3.2 4.8 0.00 0.00 0.00 82 1009.0
20260510042500 20 196 3.2 4.8 0.00 0.00 0.00 83 1009.0
20260510042000 20 186 3.2 4.8 0.00 0.00 0.00 82 1009.0
20260510041500 20 187 3.2 4.8 0.00 0.00 0.00 83 1009.0
20260510041000 20 190 3.2 4.8 0.00 0.00 0.00 83 1009.0
20260510040500 20 193 4.8 4.8 0.00 0.00 0.00 82 1009.0
20260510040000 20 193 4.8 4.8 0.00 0.00 0.00 81 1009.0
20260510035500 20 200 4.8 4.8 0.00 0.00 0.00 81 1009.0
20260510035000 21 212 4.8 8.0 0.00 0.00 0.00 79 1009.0
20260510034500 21 195 4.8 8.0 0.00 0.00 0.00 75 1008.9
20260510034000 21 168 6.4 8.0 0.00 0.00 0.00 75 1008.9
20260510033500 21 157 6.4 6.4 0.00 0.00 0.00 75 1008.9
20260510033000 21 151 6.4 6.4 0.00 0.00 0.00 76 1008.9
20260510032500 21 158 3.2 6.4 0.00 0.00 0.00 75 1008.9
20260510032000 21 172 4.8 9.7 0.00 0.00 0.00 75 1008.9
20260510031500 22 174 6.4 9.7 0.00 0.00 0.00 74 1008.8
20260510031000 22 176 8.0 9.7 0.00 0.00 0.00 73 1008.8
20260510030500 22 171 8.0 9.7 0.00 0.00 0.00 74 1008.8
20260510030000 21 171 8.0 9.7 0.00 0.00 0.00 75 1008.8
20260510025500 22 183 6.4 9.7 0.00 0.00 0.00 76 1008.8
20260510025000 22 195 6.4 9.7 0.00 0.00 0.00 75 1008.7
20260510024500 22 185 9.7 12.9 0.00 0.00 0.00 73 1008.7
20260510024001 22 191 9.7 12.9 0.00 0.00 0.00 72 1008.7
20260510023500 22 172 11.3 14.5 0.00 0.00 0.00 72 1008.6
20260510023000 23 174 12.9 14.5 0.00 0.00 0.00 70 1008.5
20260510022500 23 173 9.7 16.1 0.00 0.00 0.00 71 1008.4
20260510022000 22 172 12.9 16.1 0.00 0.00 0.00 72 1008.3
20260510021500 22 155 6.4 8.0 0.00 0.00 0.00 77 1008.3
20260510021000 22 160 4.8 4.8 0.00 0.00 0.00 81 1008.3
20260510020500 22 170 3.2 3.2 0.00 0.00 0.00 81 1008.3
20260510020000 22 117 1.6 4.8 0.00 0.00 0.00 80 1008.2
20260510015500 22 153 3.2 4.8 0.00 0.00 0.00 79 1008.2
20260510015000 22 168 3.2 4.8 0.00 0.00 0.00 80 1008.1
20260510014500 22 201 3.2 6.4 0.00 0.00 0.00 79 1008.2
20260510014000 22 203 3.2 6.4 0.00 0.00 0.00 78 1008.1
20260510013500 22 186 4.8 6.4 0.00 0.00 0.00 76 1008.1
20260510013000 23 183 4.8 6.4 0.00 0.00 0.00 73 1008.1
20260510012500 23 195 4.8 6.4 0.00 0.00 0.00 72 1008.0
20260510012000 23 200 4.8 6.4 0.00 0.00 0.00 72 1007.9
20260510011500 24 174 4.8 8.0 0.00 0.00 0.00 66 1007.9
20260510011000 24 160 6.4 8.0 0.00 0.00 0.00 65 1007.8
20260510010500 24 157 6.4 8.0 0.00 0.00 0.00 66 1007.7
20260510010000 25 152 6.4 9.7 0.00 0.00 0.00 64 1007.7
20260510005500 25 154 8.0 9.7 0.00 0.00 0.00 63 1007.7
20260510005000 25 153 8.0 8.0 0.00 0.00 0.00 63 1007.6
20260510004500 25 163 4.8 11.3 0.00 0.00 0.00 63 1007.5
20260510004000 25 162 8.0 11.3 0.00 0.00 0.00 62 1007.5
20260510003500 25 174 6.4 9.7 0.00 0.00 0.00 64 1007.5
20260510003005 25 128 4.8 4.8 0.00 0.00 0.00 62 1007.4
20260510002001 26 60 3.2 4.8 0.00 0.00 0.00 60 1007.3
20260510001500 26 48 3.2 4.8 0.00 0.00 0.00 58 1007.3
20260510001000 26 50 3.2 8.0 0.00 0.00 0.00 55 1007.3
20260510000500 26 89 4.8 8.0 0.00 0.00 0.00 52 1007.3
20260510000000 26 84 4.8 8.0 0.00 0.00 0.00 52 1007.3
20260509235506 26 92 4.8 9.7 0.00 0.00 0.00 51 1007.3
20260509234500 26 102 4.8 9.7 0.00 0.00 0.00 52 1007.2
20260509234000 26 98 6.4 11.3 0.00 0.00 0.00 52 1007.2
20260509233500 26 124 4.8 11.3 0.00 0.00 0.00 53 1007.2
20260509233000 26 107 8.0 11.3 0.00 0.00 0.00 52 1007.2
20260509232500 26 140 3.2 12.9 0.00 0.00 0.00 49 1007.2
20260509232000 26 104 8.0 16.1 0.00 0.00 0.00 49 1007.2
20260509231500 27 115 8.0 17.7 0.00 0.00 0.00 53 1007.2
20260509231000 27 138 8.0 17.7 0.00 0.00 0.00 53 1007.2
20260509230500 26 119 6.4 14.5 0.00 0.00 0.00 54 1007.2
20260509230000 27 88 6.4 14.5 0.00 0.00 0.00 50 1007.3
20260509225500 27 109 4.8 9.7 0.00 0.00 0.00 50 1007.3
20260509225000 27 312 1.6 4.8 0.00 0.00 0.00 46 1007.3
20260509224500 27 350 1.6 4.8 0.00 0.00 0.00 47 1007.3
20260509224000 27 37 3.2 4.8 0.00 0.00 0.00 47 1007.2
20260509223500 27 46 4.8 6.4 0.00 0.00 0.00 50 1007.2
20260509223000 27 11 4.8 6.4 0.00 0.00 0.00 48 1007.1
20260509222500 27 299 4.8 8.0 0.00 0.00 0.00 50 1007.0
20260509222000 26 20 6.4 9.7 0.00 0.00 0.00 47 1007.0
20260509221500 27 27 4.8 9.7 0.00 0.00 0.00 48 1007.0
20260509221000 27 58 4.8 9.7 0.00 0.00 0.00 51 1007.0
20260509220500 27 198 3.2 8.0 0.00 0.00 0.00 49 1006.9
20260509220000 27 352 6.4 9.7 0.00 0.00 0.00 48 1007.0
20260509215500 27 96 4.8 9.7 0.00 0.00 0.00 50 1007.0
20260509215000 27 153 0.0 6.4 0.00 0.00 0.00 52 1007.1
20260509214500 27 290 4.8 9.7 0.00 0.00 0.00 49 1007.1
20260509214000 26 78 4.8 9.7 0.00 0.00 0.00 50 1007.0
20260509213500 27 88 6.4 9.7 0.00 0.00 0.00 49 1007.1
20260509213000 27 255 3.2 9.7 0.00 0.00 0.00 49 1007.1
20260509212500 27 226 4.8 9.7 0.00 0.00 0.00 49 1007.3
20260509212000 27 214 4.8 9.7 0.00 0.00 0.00 51 1007.3
20260509211500 27 235 3.2 9.7 0.00 0.00 0.00 50 1007.3
20260509211000 27 86 1.6 11.3 0.00 0.00 0.00 55 1007.4
20260509210500 27 117 1.6 11.3 0.00 0.00 0.00 51 1007.5
20260509210000 27 68 6.4 9.7 0.00 0.00 0.00 51 1007.6
20260509205500 27 192 3.2 9.7 0.00 0.00 0.00 49 1007.7
20260509205000 27 271 4.8 9.7 0.00 0.00 0.00 49 1007.7
20260509204500 27 80 1.6 9.7 0.00 0.00 0.00 53 1007.8
20260509204000 26 356 4.8 12.9 0.00 0.00 0.00 49 1007.7
20260509203500 26 285 3.2 12.9 0.00 0.00 0.00 51 1007.8
20260509203000 26 135 4.8 11.3 0.00 0.00 0.00 52 1007.8
20260509202500 26 330 4.8 11.3 0.00 0.00 0.00 49 1007.8
20260509202000 27 138 6.4 11.3 0.00 0.00 0.00 55 1007.9
20260509201500 26 245 4.8 11.3 0.00 0.00 0.00 52 1007.9
20260509201000 26 230 6.4 9.7 0.00 0.00 0.00 52 1007.9
20260509200500 26 213 6.4 9.7 0.00 0.00 0.00 52 1007.9
20260509200000 26 164 4.8 14.5 0.00 0.00 0.00 52 1007.9
20260509195500 26 141 8.0 14.5 0.00 0.00 0.00 55 1008.0
20260509195000 26 38 8.0 9.7 0.00 0.00 0.00 54 1008.0
20260509194500 26 135 3.2 11.3 0.00 0.00 0.00 52 1008.1
20260509194000 26 112 8.0 11.3 0.00 0.00 0.00 54 1008.1
20260509193500 26 138 9.7 14.5 0.00 0.00 0.00 57 1008.2
20260509193000 26 122 6.4 14.5 0.00 0.00 0.00 59 1008.2
20260509192500 26 94 14.5 19.3 0.00 0.00 0.00 56 1008.3
20260509192000 26 93 9.7 19.3 0.00 0.00 0.00 59 1008.4
20260509191500 26 97 1.6 12.9 0.00 0.00 0.00 54 1008.4
20260509191000 26 101 6.4 12.9 0.00 0.00 0.00 57 1008.4
20260509190500 25 69 4.8 12.9 0.00 0.00 0.00 58 1008.4
20260509190000 26 80 6.4 11.3 0.00 0.00 0.00 55 1008.4
20260509185500 26 206 6.4 11.3 0.00 0.00 0.00 58 1008.4
20260509185000 26 71 3.2 14.5 0.00 0.00 0.00 64 1008.4
20260509184500 25 99 11.3 17.7 0.00 0.00 0.00 60 1008.4
20260509184000 26 67 8.0 17.7 0.00 0.00 0.00 63 1008.5
20260509183500 25 221 0.0 12.9 0.00 0.00 0.00 57 1008.6
20260509183000 26 190 1.6 16.1 0.00 0.00 0.00 58 1008.5
20260509182500 25 74 1.6 16.1 0.00 0.00 0.00 56 1008.5
20260509182000 25 299 3.2 14.5 0.00 0.00 0.00 55 1008.5
20260509181500 25 50 9.7 9.7 0.00 0.00 0.00 57 1008.5
20260509181000 25 46 1.6 9.7 0.00 0.00 0.00 61 1008.5
20260509180500 25 352 3.2 11.3 0.00 0.00 0.00 61 1008.4
20260509180000 25 56 9.7 11.3 0.00 0.00 0.00 60 1008.3
20260509175500 25 340 9.7 12.9 0.00 0.00 0.00 59 1008.3
20260509175000 25 321 9.7 12.9 0.00 0.00 0.00 60 1008.4
20260509174500 25 20 3.2 14.5 0.00 0.00 0.00 62 1008.5
20260509174000 25 106 8.0 14.5 0.00 0.00 0.00 60 1008.5
20260509173500 25 102 6.4 9.7 0.00 0.00 0.00 62 1008.6
20260509173000 25 228 0.0 11.3 0.00 0.00 0.00 60 1008.7
20260509172500 25 305 1.6 11.3 0.00 0.00 0.00 59 1008.6
20260509172000 25 126 3.2 11.3 0.00 0.00 0.00 60 1008.6
20260509171500 25 41 9.7 9.7 0.00 0.00 0.00 62 1008.7
20260509171000 25 186 1.6 14.5 0.00 0.00 0.00 59 1008.7
20260509170500 24 273 3.2 14.5 0.00 0.00 0.00 62 1008.6
20260509170001 24 95 4.8 16.1 0.00 0.00 0.00 63 1008.7
20260509165500 24 99 9.7 16.1 0.00 0.00 0.00 63 1008.8
20260509165000 24 293 1.6 12.9 0.00 0.00 0.00 60 1008.8
20260509164500 24 70 8.0 9.7 0.00 0.00 0.00 64 1008.8
20260509164001 24 269 1.6 6.4 0.00 0.00 0.00 60 1008.8
20260509163500 24 283 1.6 8.0 0.00 0.00 0.00 63 1008.7
20260509163000 23 248 3.2 8.0 0.00 0.00 0.00 61 1008.8
20260509162500 23 239 6.4 8.0 0.00 0.00 0.00 66 1008.8
20260509162000 23 267 3.2 9.7 0.00 0.00 0.00 63 1008.8
20260509161500 23 329 6.4 9.7 0.00 0.00 0.00 64 1008.7
20260509161000 23 46 1.6 9.7 0.00 0.00 0.00 66 1008.6
20260509160500 23 30 1.6 11.3 0.00 0.00 0.00 66 1008.5
20260509160000 22 301 4.8 11.3 0.00 0.00 0.00 67 1008.4
20260509155500 23 331 6.4 14.5 0.00 0.00 0.00 69 1008.4
20260509155000 22 327 9.7 14.5 0.00 0.00 0.00 66 1008.4
20260509154500 22 337 9.7 14.5 0.00 0.00 0.00 69 1008.3
20260509154000 22 353 1.6 14.5 0.00 0.00 0.00 66 1008.3
20260509153500 22 344 14.5 14.5 0.00 0.00 0.00 67 1008.2
20260509153000 22 358 9.7 12.9 0.00 0.00 0.00 71 1008.3
20260509152500 22 304 6.4 9.7 0.00 0.00 0.00 67 1008.2
20260509152000 22 325 9.7 11.3 0.00 0.00 0.00 69 1008.2
20260509151500 22 13 8.0 11.3 0.00 0.00 0.00 70 1008.3
20260509151000 22 350 9.7 9.7 0.00 0.00 0.00 72 1008.3
20260509150500 21 291 6.4 8.0 0.00 0.00 0.00 72 1008.3
20260509150000 21 295 1.6 6.4 0.00 0.00 0.00 72 1008.3
20260509145500 21 271 3.2 8.0 0.00 0.00 0.00 73 1008.3
20260509145000 21 298 1.6 8.0 0.00 0.00 0.00 73 1008.4
20260509144500 21 3 3.2 6.4 0.00 0.00 0.00 73 1008.4
20260509144000 21 195 3.2 6.4 0.00 0.00 0.00 73 1008.4
20260509143500 21 263 1.6 3.2 0.00 0.00 0.00 73 1008.4
20260509143000 21 269 3.2 4.8 0.00 0.00 0.00 75 1008.3
20260509142500 21 167 1.6 4.8 0.00 0.00 0.00 77 1008.3
20260509142000 20 199 1.6 4.8 0.00 0.00 0.00 76 1008.3
20260509141500 20 188 3.2 4.8 0.00 0.00 0.00 78 1008.3
20260509141000 21 165 3.2 4.8 0.00 0.00 0.00 77 1008.4
20260509140500 20 190 3.2 4.8 0.00 0.00 0.00 79 1008.4
20260509140000 20 43 1.6 4.8 0.00 0.00 0.00 78 1008.4
20260509135500 20 27 1.6 4.8 0.00 0.00 0.00 82 1008.3
20260509135000 19 214 3.2 4.8 0.00 0.00 0.00 83 1008.3
20260509134500 19 203 1.6 4.8 0.00 0.00 0.00 82 1008.3
20260509134000 19 179 3.2 6.4 0.00 0.00 0.00 82 1008.3
20260509133500 18 220 3.2 6.4 0.00 0.00 0.00 84 1008.3
20260509133000 18 167 4.8 6.4 0.00 0.00 0.00 85 1008.3
20260509132500 18 171 3.2 6.4 0.00 0.00 0.00 85 1008.2
20260509132000 18 170 4.8 6.4 0.00 0.00 0.00 85 1008.2
20260509131500 18 155 4.8 6.4 0.00 0.00 0.00 87 1008.1
20260509131000 17 193 6.4 6.4 0.00 0.00 0.00 89 1008.1
20260509130500 17 176 3.2 4.8 0.00 0.00 0.00 91 1008.0
20260509130000 17 196 4.8 6.4 0.00 0.00 0.00 91 1007.9
20260509125500 17 155 4.8 6.4 0.00 0.00 0.00 93 1007.9
20260509125000 16 147 4.8 6.4 0.00 0.00 0.00 93 1007.8
20260509124500 16 145 3.2 4.8 0.00 0.00 0.00 94 1007.8
20260509124000 16 127 1.6 3.2 0.00 0.00 0.00 94 1007.7
20260509123500 16 104 1.6 6.4 0.00 0.00 0.00 95 1007.7
20260509123000 16 163 1.6 6.4 0.00 0.00 0.00 94 1007.6
20260509122500 15 194 4.8 6.4 0.00 0.00 0.00 94 1007.6
20260509122000 15 202 3.2 8.0 0.00 0.00 0.00 94 1007.6
20260509121500 15 200 6.4 8.0 0.00 0.00 0.00 95 1007.6
20260509121000 15 193 8.0 8.0 0.00 0.00 0.00 95 1007.5
20260509120500 15 183 6.4 8.0 0.00 0.00 0.00 94 1007.4
20260509120000 15 190 4.8 4.8 0.00 0.00 0.00 94 1007.3
20260509115500 15 157 3.2 6.4 0.00 0.00 0.00 94 1007.2
20260509115000 14 176 3.2 8.0 0.00 0.00 0.00 94 1007.2
20260509114500 14 179 4.8 8.0 0.00 0.00 0.00 94 1007.2
20260509114000 14 160 6.4 8.0 0.00 0.00 0.00 94 1007.1
20260509113500 14 186 6.4 9.7 0.00 0.00 0.00 94 1007.1
20260509113000 14 188 8.0 9.7 0.00 0.00 0.00 94 1007.0
20260509112500 14 180 4.8 9.7 0.00 0.00 0.00 93 1006.9
20260509112000 14 193 6.4 9.7 0.00 0.00 0.00 93 1006.9
20260509111500 14 192 8.0 9.7 0.00 0.00 0.00 93 1006.7
20260509111000 14 194 8.0 8.0 0.00 0.00 0.00 93 1006.4
20260509110501 15 220 3.2 4.8 0.00 0.00 0.00 93 1006.2
20260509110000 15 265 1.6 4.8 0.00 0.00 0.00 93 1006.1
20260509105500 15 307 3.2 3.2 0.00 0.00 0.00 92 1006.0
20260509105000 15 256 1.6 3.2 0.00 0.00 0.00 92 1005.9